{"data":{"norad_id":58969,"epoch":"2026-05-24T21:45:06.007392Z","epoch_age_seconds":83097,"freshness":"FRESH","line1":"1 58969U 24031E   26144.90631953  .00073275  00000+0  21672-2 0  9993","line2":"2 58969  53.1603 299.7451 0001659  83.0103 277.1088 15.34275995128240","mean_motion":15.34275995,"eccentricity":0.0001659,"inclination_deg":53.1603,"raan_deg":299.7451,"arg_perigee_deg":83.0103,"mean_anomaly_deg":277.1088,"bstar":0.0021672,"rev_number":12824,"period_min":93.855343151608,"perigee_km":461.93687747827,"apogee_km":464.2067905694,"semimajor_km":6841.2088340238,"source":"CELESTRAK","updated_at":"2026-05-25T13:38:18.793780Z"}}